Current weather by "City, St" or "zip code"  
 

Current Conditions: Homestead Air Reserve Base, FL

Mostly Cloudy


77.0 F

Last Updated on Oct 31 2020, 3:56 am EDT
Humidity: 96%
Wind Speed: NE 3.5 mph
Barometer 29.98 in
Dewpoint: 75.9 F
Visibility: 10.00 mi
Precip: Trace
Heat Index: NA
Wind Chill: NA
Current conditions at:

Homestead Air Reserve Base, FL (KHST)

Lat: 25.49488 Lon: 80.37324

Local Radar Image active severe weather and emergency alerts image image weather storm and storm spotter reports image weather observation monitoring service image
Local
Radar
Active
Alerts
Storm Reports Obs
Monitoring

Sign-up For Email & Text Message Weather Alert Notification Services



Advertise Here

Observation History for Homestead Air Reserve Base, FL


Time Wind
(mph)
Vis
(mi)
Weather Precip (in) Temperature (F) Relative
Humidity
Wind
Chill
(F)
Heat
Index
(F)
Pressure
Air Dwpt altimeter
(in)
sea level
(mb)
Rmks
3:56 am EDT NE 3.5 10.00 Mostly Cloudy Trace 77.0 75.9 96% NA NA 29.98 1015.6
2:56 am EDT NW 3.5 10.00 Fair -- 78.0 76.3 96% NA NA 29.99 1015.9
1:56 am EDT N 0.0 10.00 Fair -- 78.0 76.3 94% NA NA 30.00 1016.2
12:56 am EDT N 3.5 10.00 Mostly Cloudy Trace 78.0 76.1 93% NA NA 30.00 1016.2
11:56 pm EDT N 0.0 10.00 Overcast 00.28 79.0 76.3 92% NA NA 30.00 1016.2
10:56 pm EDT NE 3.5 10.00 Mostly Cloudy Trace 79.0 76.3 91% NA NA 30.00 1016.2
9:56 pm EDT NE 4.6 10.00 Light Rain Trace 78.0 75.7 93% NA NA 29.99 1015.9
8:56 pm EDT N 0.0 10.00 Fair -- 78.0 75.6 93% NA NA 29.98 1015.6
7:56 pm EDT N 0.0 10.00 Fair -- 78.0 73.0 85% NA NA 29.96 1014.9
6:56 pm EDT E 3.5 10.00 Mostly Cloudy Trace 80.0 74.5 84% NA 85 29.95 1014.5
5:56 pm EDT NE 3.5 10.00 Light Drizzle Trace 84.0 77.2 80% NA 94 29.93 1013.9
4:56 pm EDT SW 6.9 10.00 Partly Cloudy -- 88.0 75.4 67% NA 98 29.91 1013.2
3:56 pm EDT W 6.9 10.00 Partly Cloudy -- 88.0 76.8 69% NA 100 29.91 1013.2
2:56 pm EDT SE 5.8 10.00 Partly Cloudy -- 88.0 76.3 68% NA 99 29.92 1013.5
1:56 pm EDT SE 5.8 10.00 Mostly Cloudy -- 89.0 77.2 68% NA 102 29.93 1013.9
12:56 pm EDT SE 9.2 10.00 Overcast -- 90.0 77.9 68% NA 104 29.94 1014.2
11:56 am EDT SE 10.4 10.00 Mostly Cloudy -- 87.0 76.6 71% NA 98 29.96 1014.9
9:56 am EDT SE 3.5 10.00 A Few Clouds -- 83.0 77.0 83% NA 92 29.96 1014.9
8:56 am EDT N 0.0 10.00 Fair -- 79.0 78.8 100% NA NA 29.96 1014.9
7:56 am EDT N 0.0 10.00 Fair -- 76.0 75.0 98% NA NA 29.94 1014.2
6:56 am EDT N 0.0 10.00 A Few Clouds -- 76.0 75.0 98% NA NA 29.93 1013.9
5:56 am EDT N 0.0 10.00 Fair -- 76.0 75.7 98% NA NA 29.91 1013.2
4:56 am EDT N 0.0 10.00 Fair -- 77.0 76.3 98% NA NA 29.91 1013.2

Regional Weather Observation


Miami, Miami International Airport, FL (KMIA)

Partly Cloudy
77.0 F

Miami, Opa Locka Airport, FL (KOPF)

Thunderstorm in Vicinity
74.0 F

Homestead Air Reserve Base, FL (KHST)

Mostly Cloudy
77.0 F

Hollywood, North Perry Airport, FL (KHWO)

Thunderstorm Light Rain
76.0 F

Fort Lauderdale/Hollywood International Airport, FL (KFLL)

Thunderstorm in Vicinity Rain
78.0 F

Fort Lauderdale, Fort Lauderdale Executive Airport, FL (KFXE)

Light Rain
80.0 F